Find Thaicom 2

NORAD ID: 23314 Int'l Des: 1994-065 Owner: SHINW Country: T operational
HEOCIRCULAR

Aktuelle Ansicht

3D-Globus wird geladen...

Über Thaicom 2

Beschreibung wird geladen...

Nächste Überflüge

Passes for default location (London). Set your location on the main map for personalized predictions.

Höhenverlauf

Loading altitude history...

Zweizeiliger Elementsatz

1 23314U 94065B 26150.53035012 -.00000334 00000-0 00000+0 0 9990
2 23314 11.4439 38.7312 0001404 207.2814 330.3627 0.99594548 46191
Epoch: 30. Mai 2026 • Age: 16 hours

Aktueller Status

Höhe 35981.3 km
Geschwindigkeit 3.07 km/s
Subsatellitenpunkt 10.31°N, 135.27°E
Startdatum 8. Okt. 1994
Alter 31.6 years
Typ other

Technische Details

Klassifizierung Payload
Masse 596.00 kg
Trockenmasse 402.00 kg
Gesamtmasse 1080.00 kg
Länge 6.70 m
Durchmesser 2.20 m
Spannweite 6.70 m
Form Cyl
Hersteller HSES
Bus-Typ HS-376L
Phasenstatus In Orbit
Besitzer/Staat SHINW/T

Most Searched